Home > Weather > Miskolc > Past weeks

Flag for Hungary Weather for the Past 2 Weeks in Miskolc, Hungary

Now
30 °F

Passing clouds.


Feels Like: 30 °F
Forecast: 27 / 44 °F
Wind: 2 mph from Southeast

Location: Kosice - Barca

Current Time: Feb 6, 2016 at 2:35:23 AM

Latest Report: Feb 6, 2016 at 1:30 AM


Visibility: N/A

Pressure: 30.33 "Hg

Humidity: 86%

Dew point: 27 °F

Location of MiskolcLocation

Historic Weather in Miskolc — Graph

°F

Miskolc Temperature Yesterday

Maximum temperature yesterday: 41 °F (at 12:00 PM)
Minimum temperature yesterday: 27 °F (at 12:30 AM)
Average temperature yesterday: 33 °F

High & Low Weather Summary for the Past Weeks

 TemperatureHumidityPressure
High45 °F (Feb 3, 1:30 PM)100% (Jan 25, 6:00 AM)30.60 "Hg (Jan 25, 6:00 AM)
Low5 °F (Jan 23, 4:00 AM)45% (Feb 5, 3:00 PM)29.74 "Hg (Jan 31, 6:00 AM)
Average30 °F90%30.23 "Hg
* Reported Jan 22 1:00 AM — Feb 6 1:00 AM, Miskolc, Weather by CustomWeather, © 2016

Note: Actual official high and low records may vary slightly from our data, if they occured in-between our weather recording intervals... More about our weather records

Advertising

Miskolc Weather History for the Previous 24 Hours

 ConditionsComfort  
Time TempWeatherWind HumidityBarometerVisibility
1:00 AM
Sat, Feb 6
32 °FPassing clouds.1 mph80%30.33 "HgN/A
12:30 AM30 °FPassing clouds.No wind93%30.33 "HgN/A
12:00 AM32 °FPassing clouds.1 mph80%30.33 "HgN/A
11:30 PM
Fri, Feb 5
32 °FPassing clouds.2 mph80%30.33 "HgN/A
11:00 PM32 °FPassing clouds.2 mph75%30.33 "HgN/A
10:30 PM34 °FPassing clouds.2 mph65%30.33 "HgN/A
10:00 PM32 °FPassing clouds.3 mph75%30.33 "HgN/A
9:30 PM32 °FPassing clouds.3 mph80%30.33 "HgN/A
9:00 PM32 °FPassing clouds.2 mph75%30.30 "HgN/A
8:30 PM32 °FPassing clouds.2 mph69%30.30 "HgN/A
8:00 PM34 °FClear.3 mph65%30.30 "Hg10 mi
7:30 PM32 °FClear.1 mph75%30.30 "Hg10 mi
7:00 PM32 °FPassing clouds.3 mph69%30.30 "HgN/A
6:30 PM34 °FClear.6 mph60%30.30 "Hg10 mi
6:00 PM36 °FClear.6 mph56%30.30 "Hg10 mi
5:30 PM37 °FClear.3 mph48%30.27 "Hg10 mi
5:00 PM37 °FClear.6 mph48%30.27 "Hg10 mi
4:30 PM34 °FSunny.7 mph60%30.27 "Hg10 mi
4:00 PM37 °FSunny.12 mph52%30.24 "Hg10 mi
3:30 PM39 °FSunny.8 mph48%30.24 "Hg10 mi
3:00 PM39 °FSunny.13 mph45%30.24 "Hg10 mi
2:30 PM39 °FPassing clouds.8 mph52%30.24 "HgN/A
2:00 PM41 °FPassing clouds.13 mph53%30.24 "HgN/A
1:30 PM41 °FPassing clouds.12 mph53%30.24 "HgN/A
1:00 PM41 °FPassing clouds.10 mph57%30.24 "HgN/A
12:30 PM39 °FScattered clouds.13 mph61%30.24 "HgN/A
12:00 PM41 °FPassing clouds.9 mph53%30.24 "HgN/A
11:30 AM39 °FPassing clouds.9 mph56%30.24 "HgN/A
11:00 AM39 °FScattered clouds.14 mph65%30.24 "HgN/A
10:30 AM37 °FPassing clouds.5 mph75%30.21 "HgN/A
10:00 AM36 °FPassing clouds.5 mph75%30.21 "HgN/A
9:30 AM34 °FScattered clouds.3 mph81%30.21 "HgN/A
9:00 AM32 °FSunny.5 mph87%30.18 "Hg10 mi
8:30 AM32 °FScattered clouds.6 mph87%30.18 "HgN/A
8:00 AM30 °FSunny.6 mph86%30.18 "Hg10 mi
7:30 AM28 °FScattered clouds.3 mph93%30.15 "HgN/A
7:00 AM28 °FSunny.3 mph86%30.12 "Hg10 mi
6:30 AM27 °FClear.2 mph93%30.12 "Hg10 mi
6:00 AM27 °FClear.2 mph93%30.12 "Hg10 mi
5:30 AM27 °FClear.1 mph86%30.09 "Hg10 mi
5:00 AM27 °FClear.3 mph93%30.09 "Hg10 mi
4:30 AM27 °FClear.1 mph86%30.09 "Hg10 mi
4:00 AM27 °FClear.1 mph93%30.09 "Hg10 mi
3:30 AM27 °FPassing clouds.6 mph93%30.07 "HgN/A
3:00 AM27 °FClear.2 mph86%30.07 "Hg10 mi
2:30 AM27 °FClear.1 mph86%30.07 "Hg10 mi
2:00 AM28 °FClear.2 mph86%30.07 "Hg10 mi
Weather by CustomWeather, © 2016

See weather overviewHow to use our weather pages